Location: Amsterdam
(30.7274°N, 84.4357°W)
Time: 19:24:50
(UTC+00:00)

Altair - Pass Details

Date: 11 August 2024
Orbit: 1501 x 1682 km, 47.2° (Epoch: 07 September)

Event Time Altitude Azimuth Distance (km) Brightness Sun altitude
Rises 00:47:45 0° 307° (NW) 4,711 11.9 -5.6°
Reaches altitude 10° 00:50:51 10° 306° (NW) 3,706 11.1 -6.2°
Maximum altitude 01:00:05 72° 224° (SW) 1,570 7.7 -8.1°
Drops below altitude 10° 01:09:10 10° 142° (SE) 3,642 8.9 -9.8°
Enters shadow 01:10:01 - 141° (SE) 3,919 9.1 -10.0°
Sets 01:12:11 0° 140° (SE) 4,625 - -10.4°
